Weather History for KIWI - December, 2012

Change the Weather History Date:

Friday, December 7, 2012

  Actual Average (KAUG) Record (KAUG)
Temperature  
Mean Temperature 30 °F 29 °F  
Max Temperature 42 °F 37 °F - ()
Min Temperature 19 °F 22 °F - ()
Degree Days  
Heating Degree Days 34 36  
Month to date heating degree days 241  
Since 1 July heating degree days 1789  
Cooling Degree Days 0 0  
Month to date cooling degree days 0  
Year to date cooling degree days 388  
Moisture  
Dew Point 29 °F    
Average Humidity 83    
Maximum Humidity 100    
Minimum Humidity 67    
Precipitation  
Precipitation 0.05 in 0.12 in - ()
Month to date precipitation 0.85  
Year to date precipitation 39.49  
Sea Level Pressure  
Sea Level Pressure 30.15 in    
Wind  
Wind Speed 1 mph (SSW)    
Max Wind Speed 10 mph    
Max Gust Speed -    
Visibility 8 miles    
Events Rain    
T = Trace of Precipitation, MM = Missing Value Source: NWS Daily Summary

Daily Weather History Graph

Daily Weather History Graph

Search for Another Location

Airport or City:

Trip Planner

Search our weather history database for the weather conditions in past years. The results will help you decide how hot, cold, wet, or windy it might be!

Date:

Astronomy

Dec. 07, 2012 Rise Set
Actual Time 7:00 AM EST 4:00 PM EST
Civil Twilight 6:27 AM EST 4:33 PM EST
Nautical Twilight 5:51 AM EST 5:09 PM EST
Astronomical Twilight 5:16 AM EST 5:44 PM EST
Moon 12:04 AM EST (12/7) 12:06 PM EST (12/7)
Length of Visible Light 10h 06m
Length of Day
9h 00m
Last Quarter, 39% of the Moon is Illuminated
Dec 7
Last Quarter
Dec 13
New
Dec 20
First Quarter
Dec 28
Full
Jan 4
Last Quarter

Hourly Weather History & Observations

Time (EST) Temp. Windchill Dew Point Humidity Pressure Visibility Wind Dir Wind Speed Gust Speed Precip Events Conditions
12:53 AM 21.0 °F - 16.0 °F 81% 30.31 in 10.0 mi Calm Calm - N/A   Clear
1:53 AM 19.9 °F - 16.0 °F 85% 30.30 in 10.0 mi Calm Calm - N/A   Clear
2:53 AM 19.0 °F - 15.1 °F 85% 30.28 in 10.0 mi Calm Calm - N/A   Clear
3:53 AM 19.0 °F - 15.1 °F 85% 30.27 in 10.0 mi Calm Calm - N/A   Clear
4:53 AM 19.9 °F - 16.0 °F 85% 30.27 in 10.0 mi Calm Calm - N/A   Clear
5:53 AM 23.0 °F - 19.0 °F 85% 30.25 in 10.0 mi Calm Calm - N/A   Clear
6:53 AM 24.1 °F - 19.9 °F 84% 30.26 in 10.0 mi Calm Calm - N/A   Clear
7:53 AM 26.1 °F - 21.9 °F 84% 30.25 in 10.0 mi Calm Calm - N/A   Clear
8:53 AM 28.0 °F - 23.0 °F 81% 30.24 in 10.0 mi Calm Calm - N/A   Clear
9:53 AM 30.9 °F - 26.1 °F 82% 30.22 in 10.0 mi Calm Calm - N/A   Clear
10:25 AM 33.8 °F - 26.6 °F 75% 30.22 in 10.0 mi Calm Calm - N/A   Mostly Cloudy
10:53 AM 35.1 °F - 26.1 °F 70% 30.21 in 10.0 mi Calm Calm - N/A   Overcast
11:53 AM 37.9 °F - 28.0 °F 68% 30.19 in 10.0 mi Calm Calm - N/A   Overcast
12:53 PM 41.0 °F 35.8 °F 30.9 °F 67% 30.16 in 10.0 mi SSW 8.1 mph - N/A   Overcast
1:53 PM 42.1 °F 36.1 °F 32.0 °F 67% 30.13 in 10.0 mi SSW 10.4 mph - N/A   Overcast
2:32 PM 41.0 °F 36.4 °F 33.8 °F 76% 30.12 in 10.0 mi SSW 6.9 mph - N/A   Overcast
2:53 PM 41.0 °F 35.8 °F 33.1 °F 73% 30.12 in 10.0 mi SSW 8.1 mph - N/A   Mostly Cloudy
3:53 PM 41.0 °F 38.0 °F 34.0 °F 76% 30.11 in 10.0 mi SSW 4.6 mph - N/A   Overcast
4:53 PM 42.1 °F 39.2 °F 34.0 °F 73% 30.09 in 10.0 mi South 4.6 mph - N/A   Overcast
5:53 PM 42.1 °F 40.2 °F 34.0 °F 73% 30.09 in 10.0 mi SW 3.5 mph - N/A   Overcast
6:17 PM 42.8 °F 38.0 °F 33.8 °F 70% 30.09 in 10.0 mi SW 8.1 mph - N/A   Overcast
6:53 PM 41.0 °F 38.0 °F 36.0 °F 82% 30.10 in 10.0 mi WSW 4.6 mph - 0.01 in Rain Light Rain
8:53 PM 39.0 °F - 37.0 °F 93% 30.09 in 8.0 mi Calm Calm - 0.04 in Rain Light Rain
9:42 PM 37.4 °F - 35.6 °F 93% 30.07 in 5.0 mi Calm Calm - 0.00 in   Overcast
9:53 PM 37.9 °F - 36.0 °F 93% 30.07 in 4.0 mi Calm Calm - 0.00 in   Overcast
10:19 PM 37.4 °F - 35.6 °F 93% 30.06 in 3.0 mi Calm Calm - N/A   Overcast
10:35 PM 37.4 °F - 35.6 °F 93% 30.06 in 2.5 mi Calm Calm - N/A   Overcast
10:53 PM 37.0 °F - 35.1 °F 93% 30.06 in 2.5 mi Calm Calm - N/A   Overcast
11:04 PM 35.6 °F - 35.6 °F 100% 30.06 in 1.2 mi Calm Calm - N/A   Overcast
11:20 PM 35.6 °F - 35.6 °F 100% 30.06 in 1.8 mi Calm Calm - N/A   Overcast
11:28 PM 35.6 °F - 33.8 °F 93% 30.05 in 2.5 mi Calm Calm - N/A   Overcast
11:50 PM 35.6 °F - 33.8 °F 93% 30.05 in 2.0 mi Calm Calm - N/A   Overcast
11:53 PM 36.0 °F - 34.0 °F 93% 30.05 in 2.0 mi Calm Calm - N/A   Overcast
11:59 PM 35.6 °F - 33.8 °F 93% 30.05 in 3.0 mi Calm Calm - N/A   Overcast